Regional Weather Roundup
Issued by NWS

Home | Current Version | Previous Version | Graphics & Text | Print | Product List | Glossary On
Versions: 1 2 3 4 5 6 7 8 9 10 11 12 13 14 15 16 17 18 19 20 21 22 23 24 25 26 27 28
000
ASUS45 KBOI 232310
RWRID

IDAHO REGIONAL WEATHER ROUNDUP
NATIONAL WEATHER SERVICE BOISE ID
400 PM MST MON JAN 23 2017

NOTE: "FAIR" INDICATES FEW OR NO CLOUDS BELOW 12000 FEET
WITH NO SIGNIFICANT WEATHER AND/OR OBSTRUCTIONS TO VISIBILITY

IDZ012-014-240000-
SOUTHWEST IDAHO


CITY           SKY/WX    TMP DP  RH WIND       PRES   REMARKS
BOISE          CLOUDY    32  26  78 NW13      29.63R WCI  22
CALDWELL       CLOUDY    34  28  79 NW6       29.67R WCI  29
MOUNTAIN HOME  CLOUDY    32  32 100 NW16      29.61R WCI  22
$$

IDZ016-017-240000-
SOUTHCENTRAL IDAHO


CITY           SKY/WX    TMP DP  RH WIND       PRES   REMARKS
BURLEY         HVY SNOW  29  26  89 W18G25    29.51R VSB 1/4 WCI  16
JEROME         LGT SNOW  28  27  96 SW24      29.55R VSB 3/4 WCI  14
TWIN FALLS     SNOW      29  25  85 W22       29.55R VSB 1/2 WCI  15
$$

IDZ019>023-240000-
SOUTHEAST IDAHO


CITY           SKY/WX    TMP DP  RH WIND       PRES   REMARKS
IDAHO FALLS    CLOUDY    30  28  92 N10       29.42S FOG     WCI  21
POCATELLO      LGT SNOW  31  29  92 N13       29.43R VSB 1   WCI  21
REXBURG        LGT SNOW  30  27  88 N6        29.42F FOG     WCI  24
$$

IDZ006-010-011-018-031-032-240000-
CENTRAL IDAHO MOUNTAINS


CITY           SKY/WX    TMP DP  RH WIND       PRES   REMARKS
MCCALL         CLOUDY    26  20  77 W7        29.53R WCI  18
HAILEY         LGT SNOW  30  28  93 NW6       29.47R WCI  24
STANLEY          N/A     20  17  88 CALM      29.49R
SALMON         CLOUDY    16  12  86 CALM      29.61S
CHALLIS        CLOUDY    20  17  88 CALM      29.54R
$$

IDZ002-004-006-007-026-240000-
NORTHERN IDAHO


CITY           SKY/WX    TMP DP  RH WIND       PRES   REMARKS
LEWISTON       CLOUDY    32  28  85 S3        29.79R
LOWELL           N/A     35  28  75 S9        29.74R WCI  28
COEUR D`ALENE  PTSUNNY   36  32  85 W8        29.75R WCI  30
MULLAN PASS    CLOUDY    23  19  85 CALM      29.61R
$$




USA.gov is the U.S. government's official web portal to all federal, state and local government web resources and services.